Language: 


Des rapports , des résumés tant et plus, au choix de chacun....


Données statistiques de la station
Quotidien Rapport Décembre 7, 2017 Unités:  Métrique    Anglais   les deux
« Précédent Jour
Suivant Jour »
Quotidien Hebdomadaire Mensuel Annuel Actuel
  Haut: Bas: Moyen:
Température: 8.3 °C 3.1 °C 5.4 °C
Pt de rosée: 9.0 °C 3.0 °C 4.7 °C
Humidité: 98 % 81 % 94 %
Vitesse du vent: 28.8 km/h 0.0 km/h 14.2 km/h
Rafales: 38.5 km/h - -
Vent:- - SW
Pression: 1022.9 hPa 0.0 hPa -
Précipitation: 4.6 mm    
Historical Graphs
 
 
Données statistiques pour Décembre 7, 2017
Heure Température Point de rosée Pression Vent Vitesse du vent Refales Humidité Pluie (taux horaire)
00:00 6.6 °C 4.0 °C 1022.9 hPa South 13.0 km/h 17.2 km/h 83 % 0.0 mm
00:05 6.6 °C 4.0 °C 1022.9 hPa South 10.1 km/h 16.6 km/h 83 % 0.0 mm
00:10 6.6 °C 4.0 °C 1022.9 hPa South 15.8 km/h 16.3 km/h 83 % 0.0 mm
00:15 6.5 °C 4.0 °C 1022.9 hPa SSW 9.7 km/h 20.1 km/h 82 % 0.0 mm
00:20 6.5 °C 4.0 °C 1022.9 hPa SSW 9.3 km/h 20.1 km/h 82 % 0.0 mm
00:25 6.5 °C 4.0 °C 1022.9 hPa SSW 12.2 km/h 19.1 km/h 82 % 0.0 mm
00:30 6.5 °C 4.0 °C 1022.9 hPa SSW 13.7 km/h 13.7 km/h 81 % 0.0 mm
00:35 6.4 °C 3.0 °C 1022.9 hPa SSW 20.9 km/h 20.9 km/h 81 % 0.0 mm
00:40 6.4 °C 3.0 °C 1022.9 hPa SW 18.0 km/h 20.9 km/h 81 % 0.0 mm
00:45 6.3 °C 3.0 °C 1022.9 hPa SSW 15.8 km/h 20.9 km/h 81 % 0.0 mm
00:50 6.1 °C 3.0 °C 1022.9 hPa SSW 11.9 km/h 18.0 km/h 81 % 0.0 mm
00:55 6.0 °C 3.0 °C 1022.9 hPa SSW 16.3 km/h 16.3 km/h 81 % 0.0 mm
01:00 6.0 °C 3.0 °C 1022.9 hPa SSW 12.6 km/h 16.9 km/h 81 % 0.0 mm
01:05 6.0 °C 3.0 °C 1022.9 hPa WSW 11.1 km/h 18.0 km/h 81 % 0.0 mm
01:11 5.9 °C 3.0 °C 1021.9 hPa SSW 11.9 km/h 18.0 km/h 82 % 0.0 mm
01:16 5.9 °C 3.0 °C 1021.9 hPa South 10.5 km/h 15.8 km/h 82 % 0.0 mm
01:21 5.9 °C 3.0 °C 1021.9 hPa SSW 10.1 km/h 20.1 km/h 82 % 0.0 mm
01:26 5.8 °C 3.0 °C 1021.9 hPa SW 14.8 km/h 20.1 km/h 83 % 0.0 mm
01:31 5.8 °C 3.0 °C 1021.9 hPa SSW 20.9 km/h 21.2 km/h 83 % 0.0 mm
01:36 5.8 °C 3.0 °C 1021.9 hPa SSW 13.7 km/h 21.2 km/h 83 % 0.0 mm
01:41 5.7 °C 3.0 °C 1020.9 hPa SSW 23.8 km/h 23.8 km/h 84 % 0.0 mm
01:46 5.7 °C 3.0 °C 1020.9 hPa SSW 17.2 km/h 23.8 km/h 84 % 0.0 mm
01:51 5.7 °C 3.0 °C 1020.9 hPa SSW 14.0 km/h 23.8 km/h 84 % 0.0 mm
01:56 5.7 °C 3.0 °C 1020.9 hPa SSW 12.6 km/h 20.1 km/h 84 % 0.0 mm
02:01 5.7 °C 3.0 °C 1020.9 hPa SSW 16.3 km/h 20.1 km/h 83 % 0.0 mm
02:06 5.7 °C 3.0 °C 1020.9 hPa SSW 12.2 km/h 19.8 km/h 83 % 0.0 mm
02:11 5.7 °C 3.0 °C 1020.9 hPa SSW 20.1 km/h 20.1 km/h 83 % 0.0 mm
02:16 5.7 °C 3.0 °C 1020.9 hPa SSW 19.8 km/h 20.1 km/h 83 % 0.0 mm
02:21 5.6 °C 3.0 °C 1020.9 hPa South 13.7 km/h 20.1 km/h 84 % 0.0 mm
02:26 5.5 °C 4.0 °C 1020.9 hPa SSW 12.6 km/h 19.8 km/h 85 % 0.0 mm
02:31 5.3 °C 3.0 °C 1020.9 hPa South 16.9 km/h 21.6 km/h 86 % 0.0 mm
02:36 5.1 °C 3.0 °C 1020.9 hPa South 20.9 km/h 21.6 km/h 87 % 0.0 mm
02:41 4.9 °C 3.0 °C 1020.9 hPa SSW 11.9 km/h 21.2 km/h 88 % 0.0 mm
02:47 4.8 °C 3.0 °C 1020.9 hPa SSW 16.6 km/h 21.2 km/h 88 % 0.0 mm
02:52 4.7 °C 3.0 °C 1020.9 hPa South 9.7 km/h 16.6 km/h 88 % 0.0 mm
02:57 4.6 °C 3.0 °C 1020.9 hPa SSW 17.2 km/h 17.2 km/h 89 % 0.0 mm
03:02 4.5 °C 3.0 °C 0.0 hPa SSW 19.8 km/h 19.8 km/h 89 % 0.0 mm
03:07 4.4 °C 3.0 °C 1020.9 hPa South 14.0 km/h 19.8 km/h 90 % 0.0 mm
03:12 4.4 °C 3.0 °C 1020.9 hPa SSW 16.9 km/h 24.8 km/h 90 % 0.0 mm
03:17 4.3 °C 3.0 °C 1020.9 hPa SSW 19.8 km/h 24.8 km/h 91 % 0.0 mm
03:22 4.1 °C 3.0 °C 1020.9 hPa South 14.8 km/h 21.2 km/h 91 % 0.0 mm
03:27 4.1 °C 3.0 °C 1019.9 hPa SSW 14.3 km/h 21.2 km/h 91 % 0.0 mm
03:32 4.0 °C 3.0 °C 1019.9 hPa SSW 22.4 km/h 22.4 km/h 92 % 0.0 mm
03:37 3.9 °C 3.0 °C 1019.9 hPa SSW 19.1 km/h 22.4 km/h 93 % 0.0 mm
03:42 3.9 °C 3.0 °C 1018.8 hPa SSW 16.6 km/h 22.4 km/h 93 % 0.0 mm
03:47 3.8 °C 3.0 °C 1018.8 hPa SSW 12.6 km/h 19.1 km/h 93 % 0.0 mm
03:52 3.8 °C 3.0 °C 1018.8 hPa South 12.6 km/h 20.6 km/h 94 % 0.0 mm
03:57 3.7 °C 3.0 °C 1018.8 hPa South 6.9 km/h 20.6 km/h 94 % 0.0 mm
04:02 3.7 °C 3.0 °C 1018.8 hPa SSW 24.8 km/h 24.8 km/h 94 % 0.0 mm
04:07 3.7 °C 3.0 °C 1018.8 hPa SSW 24.8 km/h 24.8 km/h 94 % 0.0 mm
04:13 3.6 °C 3.0 °C 1018.8 hPa SSW 24.8 km/h 24.8 km/h 94 % 0.0 mm
04:18 3.6 °C 3.0 °C 1018.8 hPa South 13.0 km/h 24.8 km/h 94 % 0.0 mm
04:23 3.5 °C 3.0 °C 1018.8 hPa South 13.0 km/h 24.8 km/h 95 % 0.0 mm
04:24 3.5 °C 3.0 °C 1018.8 hPa South 13.0 km/h 24.8 km/h 95 % 0.0 mm
04:25 3.5 °C 3.0 °C 1018.8 hPa South 13.0 km/h 13.0 km/h 95 % 0.0 mm
04:31 3.5 °C 3.0 °C 1018.8 hPa SSW 13.0 km/h 24.8 km/h 95 % 0.0 mm
04:36 3.4 °C 3.0 °C 1018.8 hPa SSW 19.1 km/h 24.8 km/h 95 % 0.0 mm
04:41 3.4 °C 3.0 °C 1018.8 hPa SSW 13.0 km/h 23.8 km/h 95 % 0.0 mm
04:46 3.3 °C 3.0 °C 1018.8 hPa South 16.9 km/h 23.8 km/h 95 % 0.0 mm
04:51 3.3 °C 3.0 °C 1018.8 hPa South 11.9 km/h 20.1 km/h 95 % 0.0 mm
04:56 3.2 °C 3.0 °C 1018.2 hPa South 16.3 km/h 19.1 km/h 95 % 0.0 mm
05:01 3.1 °C 3.0 °C 1018.2 hPa SSE 13.0 km/h 24.5 km/h 95 % 0.0 mm
05:06 3.1 °C 3.0 °C 1018.2 hPa South 12.2 km/h 24.5 km/h 95 % 0.0 mm
05:11 3.1 °C 3.0 °C 1018.2 hPa SSW 14.0 km/h 19.5 km/h 95 % 0.0 mm
05:16 3.1 °C 3.0 °C 1018.2 hPa SSW 12.6 km/h 17.7 km/h 96 % 0.0 mm
05:21 3.1 °C 3.0 °C 1018.2 hPa South 12.2 km/h 22.4 km/h 96 % 0.0 mm
05:26 3.1 °C 3.0 °C 1018.2 hPa SSW 10.1 km/h 22.4 km/h 96 % 0.0 mm
05:31 3.2 °C 3.0 °C 1018.2 hPa SSW 14.0 km/h 17.2 km/h 96 % 0.0 mm
05:36 3.3 °C 3.0 °C 1018.2 hPa WSW 17.7 km/h 27.0 km/h 97 % 0.0 mm
05:41 3.4 °C 3.0 °C 1018.2 hPa South 16.9 km/h 27.0 km/h 97 % 0.0 mm
05:46 3.4 °C 3.0 °C 1018.2 hPa South 16.9 km/h 19.8 km/h 97 % 0.0 mm
05:51 3.6 °C 3.0 °C 1018.2 hPa SSW 9.7 km/h 17.7 km/h 97 % 0.0 mm
05:56 3.6 °C 3.0 °C 1016.8 hPa SSW 16.9 km/h 24.8 km/h 97 % 0.0 mm
06:01 3.7 °C 3.0 °C 1016.8 hPa SSW 17.7 km/h 26.7 km/h 96 % 0.0 mm
06:06 3.7 °C 3.0 °C 1016.8 hPa SSW 21.2 km/h 26.7 km/h 96 % 0.0 mm
06:11 3.8 °C 3.0 °C 1016.8 hPa South 14.0 km/h 21.2 km/h 96 % 0.0 mm
06:16 3.8 °C 3.0 °C 1016.8 hPa South 14.0 km/h 21.2 km/h 96 % 0.0 mm
06:21 3.9 °C 4.0 °C 1016.8 hPa SSW 12.2 km/h 14.0 km/h 96 % 0.0 mm
06:26 4.0 °C 3.0 °C 1016.8 hPa SSW 13.0 km/h 14.0 km/h 95 % 0.0 mm
06:32 4.0 °C 3.0 °C 1016.8 hPa SSW 11.9 km/h 23.8 km/h 95 % 0.0 mm
06:37 4.1 °C 3.0 °C 1016.8 hPa SSW 14.3 km/h 23.8 km/h 94 % 0.0 mm
06:42 4.1 °C 3.0 °C 1016.8 hPa SW 20.1 km/h 20.1 km/h 94 % 0.0 mm
06:47 4.2 °C 3.0 °C 1016.8 hPa SSE 9.3 km/h 20.1 km/h 93 % 0.0 mm
06:52 4.3 °C 3.0 °C 1016.8 hPa South 13.7 km/h 25.3 km/h 93 % 0.0 mm
06:57 4.3 °C 3.0 °C 1016.8 hPa South 9.7 km/h 25.3 km/h 93 % 0.0 mm
07:02 4.3 °C 3.0 °C 1016.8 hPa SSW 13.0 km/h 19.8 km/h 92 % 0.0 mm
07:07 4.3 °C 3.0 °C 1016.8 hPa SSW 19.1 km/h 19.1 km/h 92 % 0.0 mm
07:12 4.3 °C 3.0 °C 1016.1 hPa SSW 19.1 km/h 19.1 km/h 92 % 0.0 mm
07:17 4.3 °C 3.0 °C 1016.1 hPa SSW 19.1 km/h 19.1 km/h 92 % 0.0 mm
07:22 4.4 °C 3.0 °C 1016.1 hPa SSW 18.0 km/h 19.1 km/h 92 % 0.0 mm
07:27 4.4 °C 3.0 °C 1016.1 hPa SSW 18.0 km/h 19.1 km/h 91 % 0.0 mm
07:32 4.4 °C 3.0 °C 1016.1 hPa SSW 16.6 km/h 23.3 km/h 91 % 0.0 mm
07:37 4.4 °C 3.0 °C 1016.1 hPa SSW 18.3 km/h 23.3 km/h 91 % 0.0 mm
07:41 4.3 °C 3.0 °C 1015.1 hPa SSW 18.3 km/h 18.3 km/h 91 % 0.0 mm
07:46 4.3 °C 3.0 °C 1015.1 hPa SSW 18.3 km/h 18.3 km/h 91 % 0.0 mm
07:51 4.3 °C 3.0 °C 1015.1 hPa South 20.6 km/h 20.6 km/h 91 % 0.0 mm
07:56 4.3 °C 3.0 °C 1014.1 hPa South 12.6 km/h 20.6 km/h 91 % 0.0 mm
08:01 4.3 °C 3.0 °C 1014.1 hPa SSW 11.1 km/h 20.6 km/h 91 % 0.0 mm
08:06 4.3 °C 3.0 °C 1014.1 hPa SSW 10.1 km/h 12.6 km/h 91 % 0.0 mm
08:11 4.3 °C 3.0 °C 1014.1 hPa SSW 12.6 km/h 12.6 km/h 92 % 0.0 mm
08:16 4.3 °C 3.0 °C 1014.1 hPa SSW 12.6 km/h 12.6 km/h 92 % 0.0 mm
08:21 4.3 °C 3.0 °C 1014.1 hPa SSW 16.3 km/h 16.3 km/h 93 % 0.0 mm
08:26 4.3 °C 3.0 °C 1015.1 hPa SSW 16.3 km/h 16.3 km/h 93 % 0.0 mm
08:31 4.3 °C 3.0 °C 1015.1 hPa SSW 16.3 km/h 16.3 km/h 93 % 0.0 mm
08:36 4.3 °C 3.0 °C 1015.1 hPa SW 17.2 km/h 20.9 km/h 93 % 0.0 mm
08:42 4.3 °C 3.0 °C 1014.1 hPa South 16.3 km/h 25.9 km/h 93 % 0.0 mm
08:47 4.3 °C 3.0 °C 1014.1 hPa WSW 9.0 km/h 25.9 km/h 93 % 0.0 mm
08:52 4.3 °C 3.0 °C 1014.1 hPa SSW 15.8 km/h 28.5 km/h 93 % 0.0 mm
08:53 4.3 °C 3.0 °C 1014.1 hPa SSW 23.3 km/h 28.5 km/h 93 % 0.0 mm
08:58 4.3 °C 3.0 °C 1015.1 hPa SW 20.9 km/h 28.5 km/h 93 % 0.0 mm
09:03 4.3 °C 3.0 °C 1015.1 hPa SSW 22.4 km/h 28.5 km/h 93 % 0.0 mm
09:08 4.3 °C 3.0 °C 1015.1 hPa SSW 10.5 km/h 28.5 km/h 93 % 0.0 mm
09:13 4.3 °C 3.0 °C 1015.1 hPa SSW 15.8 km/h 28.5 km/h 93 % 0.0 mm
09:18 4.3 °C 3.0 °C 1015.1 hPa SSW 20.9 km/h 28.5 km/h 93 % 0.0 mm
09:24 4.3 °C 3.0 °C 1015.1 hPa South 17.2 km/h 28.0 km/h 94 % 0.0 mm
09:29 4.3 °C 3.0 °C 1015.1 hPa SSW 22.4 km/h 23.3 km/h 94 % 0.0 mm
09:34 4.3 °C 3.0 °C 1015.1 hPa West 17.2 km/h 26.7 km/h 94 % 0.0 mm
09:39 4.3 °C 4.0 °C 1015.1 hPa SW 14.0 km/h 28.5 km/h 95 % 0.0 mm
09:44 4.4 °C 4.0 °C 1015.1 hPa South 20.6 km/h 28.5 km/h 95 % 0.0 mm
09:49 4.4 °C 4.0 °C 1015.1 hPa SSW 20.6 km/h 28.0 km/h 95 % 0.0 mm
09:54 4.4 °C 3.0 °C 1015.1 hPa SSW 16.3 km/h 27.7 km/h 94 % 0.0 mm
09:59 4.4 °C 4.0 °C 1014.1 hPa SSW 19.5 km/h 23.0 km/h 95 % 0.0 mm
10:04 4.5 °C 4.0 °C 1014.1 hPa SSW 13.0 km/h 24.5 km/h 95 % 0.0 mm
10:09 4.6 °C 4.0 °C 1014.1 hPa SSW 15.8 km/h 24.5 km/h 95 % 0.0 mm
10:14 4.6 °C 4.0 °C 1014.1 hPa SSW 14.0 km/h 24.5 km/h 95 % 0.0 mm
10:19 4.6 °C 4.0 °C 1014.1 hPa SSW 20.6 km/h 22.4 km/h 95 % 0.0 mm
10:24 4.7 °C 4.0 °C 1014.1 hPa South 22.7 km/h 28.5 km/h 95 % 0.0 mm
10:29 4.7 °C 4.0 °C 1014.1 hPa South 12.2 km/h 30.2 km/h 95 % 0.0 mm
10:34 4.8 °C 4.0 °C 1014.1 hPa SSW 17.2 km/h 30.2 km/h 95 % 0.0 mm
10:39 4.8 °C 4.0 °C 1014.1 hPa SSW 25.6 km/h 30.6 km/h 95 % 0.0 mm
10:44 4.9 °C 4.0 °C 1013.1 hPa SW 24.8 km/h 35.2 km/h 95 % 0.0 mm
10:49 5.0 °C 5.0 °C 1013.1 hPa SSW 20.1 km/h 35.2 km/h 95 % 0.0 mm
10:54 5.0 °C 5.0 °C 1013.1 hPa SW 21.9 km/h 27.4 km/h 95 % 0.0 mm
10:59 5.1 °C 4.0 °C 1014.1 hPa SW 24.8 km/h 31.4 km/h 94 % 0.0 mm
11:04 5.1 °C 4.0 °C 1014.1 hPa SW 21.2 km/h 31.4 km/h 94 % 0.0 mm
11:09 5.2 °C 4.0 °C 1014.1 hPa SSW 16.3 km/h 26.2 km/h 94 % 0.0 mm
11:14 5.3 °C 5.0 °C 1014.1 hPa South 15.4 km/h 27.0 km/h 94 % 0.0 mm
11:19 5.2 °C 5.0 °C 1014.1 hPa SSW 16.6 km/h 27.0 km/h 95 % 0.0 mm
11:24 5.2 °C 5.0 °C 1014.1 hPa SW 20.6 km/h 24.8 km/h 96 % 0.3 mm
11:29 5.2 °C 5.0 °C 1013.1 hPa SSW 20.9 km/h 28.8 km/h 96 % 0.3 mm
11:35 5.1 °C 5.0 °C 1013.1 hPa WSW 21.9 km/h 28.8 km/h 97 % 0.3 mm
11:40 5.1 °C 5.0 °C 1013.1 hPa SSW 9.0 km/h 28.0 km/h 98 % 0.5 mm
11:45 5.2 °C 5.0 °C 1013.1 hPa South 13.0 km/h 28.0 km/h 98 % 0.8 mm
11:50 5.2 °C 5.0 °C 1013.1 hPa South 17.7 km/h 25.3 km/h 98 % 0.8 mm
11:55 5.2 °C 5.0 °C 1013.1 hPa SSW 20.1 km/h 25.3 km/h 98 % 0.8 mm
12:00 5.3 °C 6.0 °C 1012.1 hPa SSW 15.4 km/h 24.8 km/h 98 % 0.8 mm
12:05 5.3 °C 6.0 °C 1012.1 hPa SSW 16.9 km/h 24.8 km/h 98 % 0.8 mm
12:10 5.3 °C 6.0 °C 1012.1 hPa SSW 16.9 km/h 38.5 km/h 98 % 0.8 mm
12:15 5.4 °C 6.0 °C 1011.1 hPa SW 17.7 km/h 38.5 km/h 98 % 0.8 mm
12:20 5.4 °C 6.0 °C 1011.1 hPa SSW 28.8 km/h 28.8 km/h 98 % 0.5 mm
12:25 5.4 °C 6.0 °C 1011.1 hPa SW 13.7 km/h 28.8 km/h 98 % 0.5 mm
12:30 5.5 °C 6.0 °C 1011.1 hPa South 15.4 km/h 28.8 km/h 98 % 0.5 mm
12:35 5.5 °C 6.0 °C 1011.1 hPa SSW 13.7 km/h 25.6 km/h 98 % 0.5 mm
12:40 5.6 °C 6.0 °C 1011.1 hPa South 13.7 km/h 25.6 km/h 98 % 0.3 mm
12:45 5.6 °C 6.0 °C 1011.1 hPa SSW 24.8 km/h 28.0 km/h 98 % 0.0 mm
12:50 5.7 °C 6.0 °C 1011.1 hPa South 21.9 km/h 28.0 km/h 98 % 0.0 mm
12:55 5.7 °C 6.0 °C 1011.1 hPa SSW 27.7 km/h 27.7 km/h 98 % 0.0 mm
13:00 5.7 °C 6.0 °C 1011.1 hPa SSW 13.7 km/h 27.7 km/h 98 % 0.0 mm
13:05 5.8 °C 6.0 °C 1011.1 hPa SSW 20.9 km/h 27.0 km/h 98 % 0.0 mm
13:10 5.8 °C 6.0 °C 1011.1 hPa SW 15.4 km/h 27.0 km/h 98 % 0.0 mm
13:15 5.9 °C 6.0 °C 1010.0 hPa SSW 20.9 km/h 27.0 km/h 98 % 0.0 mm
13:20 5.9 °C 6.0 °C 1010.0 hPa SW 18.0 km/h 26.2 km/h 98 % 0.0 mm
13:25 6.0 °C 6.0 °C 1010.0 hPa SW 20.9 km/h 27.7 km/h 98 % 0.0 mm
13:30 6.0 °C 6.0 °C 1010.0 hPa SSW 19.1 km/h 27.7 km/h 98 % 0.0 mm
13:35 6.1 °C 6.0 °C 1010.0 hPa South 21.2 km/h 28.0 km/h 98 % 0.0 mm
13:50 6.3 °C 6.0 °C 1009.0 hPa SSW 17.2 km/h 31.7 km/h 98 % 0.0 mm
14:00 6.4 °C 6.0 °C 1009.0 hPa SW 28.0 km/h 28.0 km/h 98 % 0.0 mm
14:05 6.5 °C 7.0 °C 1009.0 hPa WSW 23.8 km/h 28.0 km/h 98 % 0.0 mm
14:10 6.5 °C 7.0 °C 1009.0 hPa WSW 24.8 km/h 25.6 km/h 98 % 0.0 mm
14:15 6.5 °C 7.0 °C 1009.0 hPa SSW 10.1 km/h 28.8 km/h 98 % 0.0 mm
14:20 6.6 °C 7.0 °C 1009.0 hPa SW 20.9 km/h 28.8 km/h 98 % 0.0 mm
14:25 6.6 °C 7.0 °C 1008.0 hPa SSW 17.2 km/h 31.4 km/h 98 % 0.0 mm
14:30 6.7 °C 7.0 °C 1008.0 hPa SW 20.9 km/h 31.4 km/h 98 % 0.0 mm
14:35 6.7 °C 7.0 °C 1008.0 hPa SW 10.5 km/h 24.8 km/h 98 % 0.0 mm
14:40 6.7 °C 7.0 °C 1009.0 hPa SSW 17.7 km/h 24.5 km/h 98 % 0.0 mm
14:45 6.8 °C 7.0 °C 1009.0 hPa SSW 19.8 km/h 24.5 km/h 98 % 0.0 mm
14:51 6.8 °C 7.0 °C 1009.0 hPa SW 12.2 km/h 23.8 km/h 98 % 0.0 mm
14:56 6.9 °C 7.0 °C 1008.0 hPa SSW 17.7 km/h 23.8 km/h 98 % 0.0 mm
15:01 7.0 °C 7.0 °C 1008.0 hPa SW 9.7 km/h 24.8 km/h 98 % 0.0 mm
15:06 7.1 °C 7.0 °C 1008.0 hPa SSE 12.6 km/h 24.8 km/h 98 % 0.0 mm
15:16 7.2 °C 7.0 °C 1008.0 hPa SSW 13.0 km/h 24.5 km/h 98 % 0.0 mm
15:21 7.3 °C 7.0 °C 1008.0 hPa SSW 14.0 km/h 23.0 km/h 98 % 0.0 mm
15:26 7.3 °C 7.0 °C 1007.0 hPa SSW 20.9 km/h 36.7 km/h 98 % 0.0 mm
15:31 7.3 °C 7.0 °C 1007.0 hPa SSW 20.1 km/h 36.7 km/h 98 % 0.0 mm
15:36 7.3 °C 7.0 °C 1007.0 hPa SSW 13.7 km/h 29.1 km/h 98 % 0.0 mm
15:46 7.4 °C 7.0 °C 1007.0 hPa SSW 20.1 km/h 27.7 km/h 98 % 0.0 mm
15:51 7.4 °C 7.0 °C 1007.0 hPa SW 19.8 km/h 30.9 km/h 98 % 0.3 mm
16:21 7.6 °C 8.0 °C 1007.0 hPa SW 13.7 km/h 30.6 km/h 98 % 0.8 mm
16:26 7.7 °C 8.0 °C 1007.0 hPa WSW 12.6 km/h 27.4 km/h 98 % 0.8 mm
16:41 7.8 °C 8.0 °C 1007.0 hPa SSW 20.9 km/h 28.0 km/h 98 % 1.3 mm
16:51 7.9 °C 8.0 °C 1007.0 hPa South 14.8 km/h 21.6 km/h 98 % 1.3 mm
16:56 7.9 °C 8.0 °C 1007.0 hPa SW 16.6 km/h 19.8 km/h 98 % 1.5 mm
17:01 7.9 °C 8.0 °C 1007.0 hPa SSW 16.6 km/h 30.6 km/h 98 % 1.5 mm
17:06 7.9 °C 8.0 °C 1007.0 hPa SW 12.6 km/h 31.7 km/h 98 % 1.5 mm
17:11 7.9 °C 8.0 °C 1007.0 hPa SSW 15.4 km/h 31.7 km/h 98 % 1.3 mm
17:16 7.8 °C 8.0 °C 1007.0 hPa SW 10.5 km/h 21.6 km/h 98 % 1.3 mm
17:21 7.9 °C 8.0 °C 1007.0 hPa WSW 12.2 km/h 24.8 km/h 98 % 1.3 mm
17:31 7.9 °C 8.0 °C 1007.0 hPa SSW 21.9 km/h 23.3 km/h 98 % 1.3 mm
17:41 7.9 °C 8.0 °C 1006.0 hPa WSW 11.1 km/h 19.5 km/h 98 % 1.0 mm
17:46 7.9 °C 8.0 °C 1006.0 hPa SW 19.8 km/h 19.8 km/h 98 % 1.3 mm
17:51 8.0 °C 8.0 °C 1006.0 hPa WSW 14.0 km/h 20.9 km/h 98 % 1.0 mm
17:56 8.0 °C 8.0 °C 1007.0 hPa SW 11.6 km/h 20.9 km/h 98 % 0.8 mm
18:02 8.1 °C 8.0 °C 1007.0 hPa WSW 9.7 km/h 20.6 km/h 98 % 0.8 mm
18:07 8.1 °C 8.0 °C 1007.0 hPa WSW 16.3 km/h 20.6 km/h 98 % 0.3 mm
18:12 8.2 °C 8.0 °C 1007.0 hPa WSW 12.6 km/h 20.9 km/h 98 % 0.3 mm
18:17 8.2 °C 8.0 °C 1007.0 hPa WSW 15.8 km/h 20.9 km/h 98 % 0.3 mm
18:22 8.3 °C 9.0 °C 1007.0 hPa WSW 8.7 km/h 20.9 km/h 98 % 0.3 mm
18:27 8.3 °C 9.0 °C 1007.0 hPa NNW 5.0 km/h 19.1 km/h 98 % 0.3 mm
18:32 8.3 °C 9.0 °C 1007.0 hPa West 9.7 km/h 12.6 km/h 98 % 0.5 mm
18:37 8.3 °C 9.0 °C 1007.0 hPa NNW 9.3 km/h 16.3 km/h 98 % 0.8 mm
18:42 7.8 °C 8.0 °C 1009.0 hPa NNW 14.0 km/h 20.1 km/h 98 % 1.3 mm
18:47 7.5 °C 8.0 °C 1009.0 hPa NW 6.9 km/h 20.1 km/h 98 % 0.8 mm
18:52 7.2 °C 7.0 °C 1009.0 hPa North 12.2 km/h 20.1 km/h 98 % 0.8 mm
18:57 7.1 °C 7.0 °C 1009.0 hPa North 9.0 km/h 17.2 km/h 98 % 0.8 mm
19:28 6.8 °C 7.0 °C 1009.0 hPa Calm   9.0 km/h 98 % 0.8 mm
19:38 6.7 °C 7.0 °C 1009.0 hPa WNW 1.4 km/h 6.4 km/h 98 % 0.3 mm
19:48 6.7 °C 7.0 °C 1009.0 hPa Calm   6.4 km/h 98 % 0.3 mm
19:58 6.6 °C 7.0 °C 1009.0 hPa NNW 2.6 km/h 12.2 km/h 98 % 0.3 mm
20:03 6.5 °C 7.0 °C 1009.0 hPa Calm   10.1 km/h 98 % 0.3 mm
20:08 6.4 °C 6.0 °C 1009.0 hPa West 2.1 km/h 10.1 km/h 98 % 0.0 mm
20:13 6.3 °C 6.0 °C 1009.0 hPa Calm   9.3 km/h 98 % 0.0 mm
20:18 6.3 °C 6.0 °C 1009.0 hPa West 8.7 km/h 10.1 km/h 98 % 0.0 mm
20:23 6.1 °C 6.0 °C 1009.0 hPa Calm   10.1 km/h 98 % 0.0 mm
20:28 6.1 °C 6.0 °C 1009.0 hPa Calm   9.3 km/h 98 % 0.0 mm
20:38 5.8 °C 6.0 °C 1009.0 hPa Calm   6.9 km/h 98 % 0.0 mm
20:43 5.7 °C 6.0 °C 1009.0 hPa WSW 6.1 km/h 7.9 km/h 98 % 0.0 mm
20:48 5.5 °C 6.0 °C 1009.0 hPa SW 5.5 km/h 8.7 km/h 98 % 0.0 mm
20:58 5.3 °C 6.0 °C 1009.0 hPa Calm   8.7 km/h 98 % 0.0 mm
21:03 5.3 °C 6.0 °C 1009.0 hPa WSW 5.0 km/h 8.7 km/h 98 % 0.0 mm
21:18 5.4 °C 6.0 °C 1010.0 hPa WNW 6.1 km/h 11.1 km/h 98 % 0.0 mm
21:28 5.5 °C 6.0 °C 1010.0 hPa West 5.0 km/h 11.6 km/h 98 % 0.0 mm
21:33 5.5 °C 6.0 °C 1010.0 hPa Calm   13.0 km/h 98 % 0.0 mm
21:38 5.6 °C 6.0 °C 1010.0 hPa West 9.7 km/h 13.0 km/h 98 % 0.0 mm
21:43 5.6 °C 6.0 °C 1010.0 hPa West 7.9 km/h 12.2 km/h 98 % 0.0 mm
21:48 5.6 °C 6.0 °C 1010.0 hPa SW 4.7 km/h 10.5 km/h 98 % 0.0 mm
21:53 5.6 °C 6.0 °C 1010.0 hPa West 6.1 km/h 11.9 km/h 98 % 0.0 mm
21:58 5.6 °C 6.0 °C 1010.0 hPa West 1.4 km/h 13.7 km/h 98 % 0.0 mm
22:08 5.6 °C 6.0 °C 1010.0 hPa West 4.7 km/h 11.9 km/h 98 % 0.0 mm
22:14 5.6 °C 6.0 °C 1010.0 hPa WSW 5.0 km/h 11.9 km/h 98 % 0.0 mm
22:22 5.4 °C 6.0 °C 1010.0 hPa WSW 7.6 km/h 11.6 km/h 98 % 0.0 mm
22:27 5.3 °C 6.0 °C 1010.0 hPa WSW 9.0 km/h 11.1 km/h 98 % 0.0 mm
22:32 5.1 °C 5.0 °C 1010.0 hPa West 11.6 km/h 11.6 km/h 98 % 0.0 mm
22:37 5.0 °C 5.0 °C 1010.0 hPa West 4.0 km/h 11.6 km/h 98 % 0.0 mm
22:42 4.9 °C 5.0 °C 1010.0 hPa West 6.4 km/h 11.6 km/h 98 % 0.0 mm
22:47 4.7 °C 5.0 °C 1010.0 hPa West 5.5 km/h 9.0 km/h 98 % 0.0 mm
22:52 4.7 °C 5.0 °C 1010.0 hPa West 5.0 km/h 7.9 km/h 98 % 0.0 mm
22:57 4.6 °C 5.0 °C 1010.0 hPa WSW 9.0 km/h 11.1 km/h 98 % 0.0 mm
23:02 4.5 °C 5.0 °C 1010.0 hPa West 6.1 km/h 11.1 km/h 98 % 0.0 mm
23:12 4.4 °C 4.0 °C 1010.0 hPa WSW 5.8 km/h 13.7 km/h 98 % 0.0 mm
23:17 4.4 °C 4.0 °C 1010.0 hPa West 8.7 km/h 12.2 km/h 98 % 0.0 mm
23:22 4.4 °C 4.0 °C 1010.0 hPa West 6.4 km/h 13.7 km/h 98 % 0.0 mm
23:32 4.5 °C 5.0 °C 1011.1 hPa West 4.3 km/h 14.0 km/h 98 % 0.0 mm
23:37 4.6 °C 5.0 °C 1011.1 hPa SSW 9.3 km/h 10.1 km/h 98 % 0.0 mm
23:42 4.5 °C 5.0 °C 1011.1 hPa West 6.9 km/h 9.3 km/h 98 % 0.0 mm
23:52 4.5 °C 5.0 °C 1011.1 hPa WNW 10.5 km/h 10.5 km/h 98 % 0.0 mm
23:57 4.4 °C 4.0 °C 1011.1 hPa Calm   10.5 km/h 98 % 0.0 mm
Le Gheer Warneton
Courtoisie de Weather Underground - 2 mb

Mise a jour : 16-12-17 12:06:11
Généré par Cumulus 1.9.4 (1099)